AirNav   Air Wisconsin pilot careers
 
 421 users online  

8M8 Eagle II Airport
Lewiston, Michigan, USA

GOING TO LEWISTON?


FAA INFORMATION EFFECTIVE 19 JULY 2018

Location

FAA Identifier: 8M8
Lat/Long: 44-48-23.5000N / 084-16-34.3000W
44-48.391667N / 084-16.571667W
44.8065278 / -84.2761944
(estimated)
Elevation: 1218 ft. / 371 m (estimated)
Variation: 05W (1985)
From city: 5 miles SE of LEWISTON, MI
Time zone: UTC -4 (UTC -5 during Standard Time)
Zip code: 49756

Airport Operations

Airport use: Open to the public
Activation date: 07/1989
Control tower: no
ARTCC: MINNEAPOLIS CENTER
FSS: LANSING FLIGHT SERVICE STATION
NOTAMs facility: LAN (NOTAM-D service available)
Attendance: UNATNDD
Wind indicator: lighted
Segmented circle: no
Lights: SS-SR
Beacon: white-green (lighted land airport)
ACTVT ROTG BCN - CTAF.
Landing fee: yes

Airport Communications

CTAF/UNICOM: 122.8

Nearby radio navigation aids

VOR radial/distance  VOR name  Freq  Var
CGGr075/(20.7)GRAYLING VOR109.8006W
GLRr130/22.0GAYLORD VOR/DME109.2006W
BXZr359/34.0WEST BRANCH VOR/DME113.2006W
APNr249/34.7ALPENA VORTAC108.8007W

 
NDB name  Hdg/Dist  Freq  Var  ID
GRAYLING088/23.835906WGYG --. -.-- --.

Airport Services

Parking: tiedowns

Runway Information

Runway 18/36

Dimensions: 5047 x 75 ft. / 1538 x 23 m
Surface: asphalt, in poor condition
LARGE CRACKS IN PAVEMENT.
Weight bearing capacity: 
Single wheel: 15.0
Runway edge lights: medium intensity
RUNWAY 18  RUNWAY 36
Latitude: 44-48.805167N44-47.979167N
Longitude: 084-16.634333W084-16.509333W
Elevation: 1212.0 ft.1210.0 ft.
Traffic pattern: leftleft
Displaced threshold: no400 ft.
Markings: basic, in good conditionbasic, in good condition
Visual slope indicator: 2-light PAPI on left (3.00 degrees glide path)
Touchdown point: yes, no lightsyes, no lights
Obstructions: 50 ft. trees, 201 ft. from runway, 194 ft. right of centerline
50 FT. TREES, 0-199 FT. DSTC, 164 FT L AND 194 FT. R OF CNTRLN.
50 ft. trees, 201 ft. from runway, 220 ft. right of centerline
50 FT. TREES, 0-199 FT. DSTC, 220 FT R/L.

Airport Ownership and Management from official FAA records

Ownership: Privately-owned
Owner: GARY VOLLMAR
412 MONARCH TR
LEWISTON, MI 49756
Phone 810-444-8640
Manager: GARY VOLLMAR
412 MONARCH TR
LEWISTON, MI 49756
Phone 810-444-8640

Airport Operational Statistics

Aircraft operations: 100/year *
50% transient general aviation
50% military
* for 12-month period ending 31 December 2016

Additional Remarks

FENCE AROUND AIRPORT - ACCESS 5-3-2-1. KEEP GATE CLSD AND LOCKED.
NON-AVIATION RELATED CARGO OPS ON NORTH RAMP. NO ACFT PARKING. ACFT USE WEST RAMP.
VEHICLES CROSSING RY.

Instrument Procedures

There are no published instrument procedures at 8M8.

Some nearby airports with instrument procedures:

KGOV - Grayling Army Airfield (21 nm W)
KGLR - Gaylord Regional Airport (22 nm NW)
KHTL - Roscommon County - Blodgett Memorial Airport (32 nm SW)
Y31 - West Branch Community Airport (34 nm S)
KAPN - Alpena County Regional Airport (34 nm NE)
 
Loc | Ops | Rwys | IFR | FBO | Links
Com | Nav | Svcs | Stats | Notes


 
Area around 8M8 (Eagle II Airport)
 
Road maps at: MapQuest Bing Google
 
Aerial photo
WARNING: Photo may not be current or correct
Aerial photo of 8M8 (Eagle II Airport)
Do you have a better or more recent aerial photo of Eagle II Airport that you would like to share? If so, please send us your photo.

 
Sectional chart

 
Airport distance calculator
Flying to Eagle II Airport? Find the distance to fly.

From to 8M8

Sunrise and sunset
Times for 14-Aug-2018
 Local
(UTC-4)
 Zulu
(UTC)
Morning civil twilight06:0710:07
Sunrise06:3910:39
Sunset20:4400:44
Evening civil twilight21:1601:16

Current date and time
Zulu (UTC)  14-Aug-2018 07:32:23
Local (UTC-4)  14-Aug-2018 03:32:23
 
METAR
KGOV 
21nm W 
140658Z AUTO 00000KT 6SM BR CLR 13/13 A2999 RMK AO2 SLP157 T01320127 $
KGLR 
21nm NW 
140653Z AUTO 23003KT 10SM CLR 17/15 A3000 RMK AO2 SLP153 T01670150
KHTL 
32nm SW 
140704Z AUTO 00000KT 3SM BR CLR 15/14 A3001 RMK AO2 T01500144
KAPN 
34nm NE 
140654Z AUTO 22004KT 10SM CLR 19/17 A2998 RMK AO2 SLP148 T01940172
KY31 
34nm S 
140715Z AUTO 00000KT 1/4SM FG OVC002 14/13 A2998 RMK AO2 T01370132
KACB 
41nm W 
140715Z AUTO 00000KT 5SM BR CLR 14/13 A2998 RMK AO2 T01360130
KPZQ 
41nm NE 
140715Z AUTO 23005KT 10SM CLR 19/17 A2997 RMK AO2 T01910165
TAF
KAPN 
34nm NE 
140520Z 1406/1506 VRB04KT P6SM MIFG SKC FM141400 27005KT P6SM FEW250 FM141800 27006KT P6SM FEW070 FM142300 31006KT P6SM SCT250 FM150200 32005KT P6SM FEW090 BKN200
NOTAMs
Click for the latest NOTAMs
NOTAMs are issued by the DoD/FAA and will open in a separate window not controlled by AirNav.

 

 
 

Would you like to see your business listed on this page?

 If your business provides an interesting product or service to pilots, flight crews, aircraft, or users of the Eagle II Airport, you should consider listing it here.  To start the listing process, click on the button below
 
Add a business
 

Other Pages about Eagle II Airport

Page from the Michigan Airport Directory (PDF)
 
Update a link
 
Copyright © AirNav, LLC. All rights reserved. Privacy Policy  Contact